Andalusia, AL

2:53 PM CDT on May 24, 2017 (GMT -0500)
Andalusia

Weather History for K79J - June, 2013

Change the Weather History Date:

Wednesday, June 5, 2013

  Actual Average (KCEW) Record (KCEW)
Temperature  
Mean Temperature 79 °F -  
Max Temperature 87 °F 90 °F 100 °F (1985)
Min Temperature 71 °F 66 °F 62 °F (1950)
Cooling Degree Days 14    
Growing Degree Days 29 (Base 50)    
Moisture  
Dew Point 70 °F    
Average Humidity 78    
Maximum Humidity 94    
Minimum Humidity 58    
Precipitation  
Precipitation 0.12 in - - ()
Sea Level Pressure  
Sea Level Pressure 29.95 in    
Wind  
Wind Speed 4 mph (ESE)    
Max Wind Speed 14 mph    
Max Gust Speed 24 mph    
Visibility 9 miles    
Events Rain    
Averages and records for this station are not official NWS values.
T = Trace of Precipitation, MM = Missing Value Source: NWS Daily Summary

Daily Weather History Graph

Daily Weather History Graph

Search for Another Location

Airport or City:

Trip Planner

Search our weather history database for the weather conditions in past years. The results will help you decide how hot, cold, wet, or windy it might be!

Date:

Astronomy

Jun. 05, 2013 Rise Set
Actual Time 5:41 AM CDT 7:47 PM CDT
Civil Twilight 5:13 AM CDT 8:15 PM CDT
Nautical Twilight 4:39 AM CDT 8:48 PM CDT
Astronomical Twilight 4:03 AM CDT 9:25 PM CDT
Moon 3:36 AM CDT (6/5) 5:20 PM CDT (6/5)
Length of Visible Light 15h 01m
Length of Day
14h 06m
Waning Crescent, 8% of the Moon is Illuminated
Jun 5
Waning Crescent
Jun 8
New
Jun 16
First Quarter
Jun 23
Full
Jun 29
Last Quarter

Hourly Weather History & Observations

Time (CDT) Temp. Heat Index Dew Point Humidity Pressure Visibility Wind Dir Wind Speed Gust Speed Precip Events Conditions
12:42 AM 75.2 °F - 71.6 °F 89% 29.98 in 10.0 mi Calm Calm - N/A   Mostly Cloudy
12:56 AM 75.0 °F - 71.1 °F 87% 29.96 in 10.0 mi Calm Calm - N/A   Overcast
1:21 AM 75.2 °F - 71.6 °F 89% 29.98 in 10.0 mi Calm Calm - N/A   Partly Cloudy
1:56 AM 75.0 °F - 71.1 °F 87% 29.96 in 10.0 mi Calm Calm - N/A   Mostly Cloudy
2:56 AM 73.9 °F - 70.0 °F 87% 29.95 in 10.0 mi ESE 3.5 mph - N/A   Clear
3:05 AM 73.4 °F - 71.6 °F 94% 29.97 in 10.0 mi ESE 4.6 mph - N/A   Scattered Clouds
3:13 AM 73.4 °F - 71.6 °F 94% 29.97 in 10.0 mi SE 5.8 mph - N/A   Mostly Cloudy
3:41 AM 75.2 °F - 71.6 °F 89% 29.98 in 10.0 mi East 3.5 mph - N/A   Overcast
3:56 AM 75.0 °F - 72.0 °F 90% 29.96 in 8.0 mi East 3.5 mph - N/A   Overcast
4:56 AM 72.0 °F - 68.0 °F 87% 29.98 in 2.0 mi East 13.8 mph 24.2 mph 0.06 in Rain Heavy Rain
5:02 AM 71.6 °F - 68.0 °F 88% 30.00 in 3.0 mi East 11.5 mph - 0.00 in Rain Light Rain
5:06 AM 71.6 °F - 68.0 °F 88% 30.00 in 10.0 mi East 9.2 mph 18.4 mph 0.01 in Rain Light Rain
5:43 AM 71.6 °F - 66.2 °F 83% 30.00 in 4.0 mi East 4.6 mph - 0.06 in Rain Rain
5:56 AM 71.1 °F - 66.9 °F 87% 29.98 in 10.0 mi ENE 3.5 mph - 0.06 in Rain Light Rain
6:56 AM 71.1 °F - 66.0 °F 84% 29.95 in 10.0 mi Calm Calm - 0.00 in   Mostly Cloudy
7:56 AM 73.9 °F - 68.0 °F 82% 29.92 in 10.0 mi West 8.1 mph - N/A   Partly Cloudy
8:56 AM 79.0 °F - 69.1 °F 72% 29.94 in 10.0 mi West 3.5 mph - N/A   Clear
9:43 AM 82.4 °F 86.3 °F 69.8 °F 66% 29.98 in 10.0 mi East 8.1 mph - N/A   Mostly Cloudy
9:56 AM 81.0 °F 84.9 °F 71.1 °F 72% 29.97 in 10.0 mi East 8.1 mph - N/A   Overcast
10:45 AM 82.4 °F 87.2 °F 71.6 °F 70% 29.99 in 10.0 mi ESE 10.4 mph - N/A   Mostly Cloudy
10:56 AM 84.0 °F 89.0 °F 71.1 °F 65% 29.98 in 10.0 mi East 10.4 mph - N/A   Scattered Clouds
11:56 AM 84.9 °F 90.1 °F 71.1 °F 63% 29.97 in 10.0 mi East 5.8 mph - N/A   Mostly Cloudy
12:13 PM 84.2 °F 88.4 °F 69.8 °F 62% 29.97 in 10.0 mi East 8.1 mph - N/A   Mostly Cloudy
12:37 PM 87.8 °F 93.8 °F 71.6 °F 58% 29.96 in 10.0 mi East 8.1 mph - N/A   Mostly Cloudy
12:56 PM 84.9 °F 89.4 °F 70.0 °F 61% 29.94 in 10.0 mi Calm Calm - N/A   Scattered Clouds
1:56 PM 84.0 °F 89.0 °F 71.1 °F 65% 29.92 in 10.0 mi South 5.8 mph - N/A   Overcast
2:56 PM 82.9 °F 87.5 °F 71.1 °F 67% 29.91 in 10.0 mi South 9.2 mph - N/A   Partly Cloudy
3:56 PM 84.9 °F 89.4 °F 70.0 °F 61% 29.88 in 10.0 mi Variable 6.9 mph 19.6 mph N/A   Partly Cloudy
4:56 PM 84.0 °F 88.4 °F 70.0 °F 63% 29.88 in 10.0 mi Variable 3.5 mph - N/A   Clear
5:56 PM 81.0 °F 84.1 °F 69.1 °F 67% 29.88 in 10.0 mi South 6.9 mph 16.1 mph N/A   Scattered Clouds
6:56 PM 80.1 °F 83.2 °F 70.0 °F 71% 29.88 in 10.0 mi Calm Calm - N/A   Mostly Cloudy
7:56 PM 78.1 °F - 70.0 °F 76% 29.89 in 10.0 mi SSE 4.6 mph - N/A   Scattered Clouds
8:56 PM 75.9 °F - 70.0 °F 82% 29.91 in 10.0 mi Variable 3.5 mph - N/A   Clear
9:56 PM 75.0 °F - 68.0 °F 79% 29.92 in 10.0 mi SSW 3.5 mph - N/A   Scattered Clouds
10:56 PM 73.9 °F - 69.1 °F 85% 29.93 in 10.0 mi Calm Calm - 0.00 in Rain Light Rain
11:56 PM 73.9 °F - 69.1 °F 85% 29.91 in 10.0 mi Calm Calm - 0.00 in   Overcast